Regional Weather Roundup
Issued by NWS

Home | Current Version | Previous Version | Text Only | Print | Product List | Glossary On
Versions: 1 2 3 4 5 6 7 8 9 10 11 12 13 14 15 16 17 18 19 20 21 22 23 24 25 26 27 28 29 30 31 32 33 34 35 36 37 38 39 40 41 42 43 44 45 46 47 48 49 50
000
ASUS43 KDTX 290101
RWRMI
MICHIGAN HOURLY REGIONAL WEATHER ROUNDUP
NATIONAL WEATHER SERVICE DETROIT/PONTIAC MI
900 PM EDT SAT MAY 28 2016

NOTE: "FAIR" INDICATES FEW OR NO CLOUDS BELOW 12,000 FEET WITH NO
SIGNIFICANT WEATHER AND/OR OBSTRUCTION TO VISIBILITY.

MIZ047>049-052>055-059>063-066>070-074>076-081>083-290200-
SOUTHEAST LOWER MICHIGAN

CITY           SKY/WX    TMP DP  RH WIND       PRES   REMARKS
ADRIAN         MOCLDY    79  65  62 S12       30.03R
ALMA           CLOUDY    75  65  72 CALM      29.96S
ANN ARBOR      PTCLDY    78  62  57 S9        30.02R
BAD AXE        CLOUDY    75  66  73 S8        29.99S
CARO           CLEAR     78  61  55 S5        29.98S
DETROIT CITY   CLOUDY    78  61  55 SW14      30.02S
DETROIT        MOCLDY    77  63  61 S15       30.03S
FLINT          CLEAR     79  60  52 S7        29.99R
GROSSE ILE     PTCLDY    70  64  83 S6        30.02F
HILLSDALE      LGT RAIN  75  61  62 S10G20    30.04R
HOWELL         PTCLDY    79  60  51 S9G18     30.00R

CITY           SKY/WX    TMP DP  RH WIND       PRES   REMARKS
JACKSON        PTCLDY    78  63  59 S12       30.01R
LAMBERTVILLE   PTCLDY    79  64  60 S5        30.04S
LANSING        CLOUDY    71  65  81 CALM      29.99R
LAPEER         FAIR      77  65  66 S7        30.00S
MASON          MOCLDY    79  62  56 S8G21     29.99R
MONROE         PTCLDY    76  66  70 S7        30.03S
PONTIAC        MOCLDY    79  63  57 S9        30.01R
PORT HOPE        N/A     76  70  82 VRB5      29.97R
PORT HURON     CLOUDY    73  66  78 S7        30.03R
TRI CITIES     MOCLDY    81  63  54 S6        29.96S
MIDLAND        MOCLDY    75  64  70 CALM      29.95S
SAGINAW HB     MOCLDY    77  63  61 S6        29.97R
$$
MIZ043>046-050>051-056>058-064>065-071>073-077>080-290200-
SOUTHWEST LOWER MICHIGAN

CITY           SKY/WX    TMP DP  RH WIND       PRES   REMARKS
BATTLE CREEK   LGT RAIN  75  60  59 S23G31    30.00R
BENTON HARBOR  CLEAR     81  58  45 S12       29.94R
BIG RAPIDS     CLOUDY    70  68  93 CALM      29.95S
COLDWATER      DRIZZLE   74  62  66 SW7       30.01R
FREMONT        FAIR      73  66  79 CALM      29.94F
HOLLAND        CLOUDY    77  64  64 SW5       29.95R
GRAND RAPIDS   MOCLDY    80  60  50 S6        29.96R
IONIA          FAIR      77  60  55 S6        29.95F
KALAMAZOO      MOCLDY    77  60  55 S9        29.98R
LUDINGTON      CLEAR     73  63  71 S13G18    29.92S
MARSHALL       CLOUDY    80  64  58 S10G16    29.99R
MOUNT PLEASANT CLOUDY    80  63  56 S3        29.95S
MUSKEGON       PTCLDY    74  62  66 S5        29.93S
SOUTH HAVEN    CLEAR     79  59  51 SE3       29.94S
$$
MIZ016>042-290200-
NORTHERN LOWER MICHIGAN

CITY           SKY/WX    TMP DP  RH WIND       PRES   REMARKS
ALPENA         PTCLDY    80  63  55 SW8       29.94R
BEAVER ISLAND  CLEAR     71  62  72 SW15G23   29.90R
BELLAIRE       CLOUDY    78  64  61 S10G16    29.90S
CADILLAC       CLOUDY    73  62  67 S9        29.96R
CHARLEVOIX     CLOUDY    77  62  59 S6        29.93S
FRANKFORT      CLEAR     73  64  73 S7        29.90S
GAYLORD        CLOUDY    77  63  61 S12       29.95S
GRAYLING       CLOUDY    72  67  86 SW5       29.97S
HARBOR SPRINGS CLOUDY    71  63  76 NE3       29.91S
HOUGHTON LAKE  MOCLDY    76  62  62 SW7       29.96S
MANISTEE       PTCLDY    75  61  60 S12       29.92F
OSCODA         CLEAR     80  60  49 S12       29.95S
PELLSTON       CLOUDY    76  64  66 CALM      29.92R
ROGERS CITY    LGT RAIN  73  65  76 SW6       29.95R
TRAVERSE CITY  CLOUDY    79  61  53 S9G22     29.89R
$$
MIZ007>008-015-290200-
EASTERN UPPER MICHIGAN

CITY           SKY/WX    TMP DP  RH WIND       PRES   REMARKS
KINROSS          N/A     73  66  78 S5        29.92R
MACKINAC ISLAN CLOUDY    65  58  77 CALM      29.91R
NEWBERRY       CLEAR     69  62  80 S16G22    29.89R
S. S. MARIE    MOCLDY    74  65  73 CALM      29.90R
MUNISING         N/A     70  62  76 S9        29.82R
$$
MIZ004>006-011>014-085-290200-
CENTRAL UPPER MICHIGAN

CITY           SKY/WX    TMP DP  RH WIND       PRES   REMARKS
MANISTIQUE     MOCLDY    58  56  94 S5        29.88S
ESCANABA       PTCLDY    64  57  77 S6        29.84R
MENOMINEE      CLEAR     72  64  76 S8        29.83S
SAWYER-GWINN   PTCLDY    70  64  83 S12       29.83R
$$
MIZ001>003-009>011-084-290200-
WESTERN UPPER MICHIGAN

CITY           SKY/WX    TMP DP  RH WIND       PRES   REMARKS
IRON MOUNTAIN  CLEAR     73  58  59 S6        29.81R
HOUGHTON       CLOUDY    66  64  93 CALM      29.77S
COPPER HARBOR    N/A     53  52  96 CALM      29.76F
IRONWOOD       CLOUDY    55  55 100 CALM      29.81R
$$

ABBREVIATIONS USED IN REMARKS
   TC - TEMPERATURE IN CELSIUS
  WCI - WIND CHILL INDEX
   HX - HEAT INDEX
  VSB - VISIBILITY





USA.gov is the U.S. government's official web portal to all federal, state and local government web resources and services.